TimeEST,TemperatureF,Dew PointF,Humidity,Sea Level PressureIn,VisibilityMPH,Wind Direction,Wind SpeedMPH,Gust SpeedMPH,PrecipitationIn,Events,Conditions,WindDirDegrees,DateUTC
12:15 AM,44.6,28.4,53,30.12,10.0,SW,3.5,-,N/A,,Clear,220,2013-12-20 05:15:00
12:35 AM,44.6,28.4,53,30.12,10.0,Calm,Calm,-,N/A,,Clear,0,2013-12-20 05:35:00
12:55 AM,42.8,28.4,57,30.11,10.0,Calm,Calm,-,N/A,,Clear,0,2013-12-20 05:55:00
1:15 AM,42.8,28.4,57,30.12,10.0,Calm,Calm,-,N/A,,Clear,0,2013-12-20 06:15:00
1:35 AM,41.0,28.4,61,30.12,10.0,Calm,Calm,-,N/A,,Clear,0,2013-12-20 06:35:00
1:55 AM,42.8,30.2,61,30.11,10.0,Calm,Calm,-,N/A,,Clear,0,2013-12-20 06:55:00
2:15 AM,39.2,28.4,65,30.12,10.0,Calm,Calm,-,N/A,,Clear,0,2013-12-20 07:15:00
2:35 AM,37.4,28.4,70,30.11,10.0,Calm,Calm,-,N/A,,Clear,0,2013-12-20 07:35:00
2:55 AM,37.4,28.4,70,30.12,10.0,Calm,Calm,-,N/A,,Clear,0,2013-12-20 07:55:00
3:15 AM,35.6,28.4,75,30.12,10.0,Calm,Calm,-,N/A,,Clear,0,2013-12-20 08:15:00
3:35 AM,33.8,28.4,81,30.11,10.0,Calm,Calm,-,N/A,,Clear,0,2013-12-20 08:35:00
3:55 AM,33.8,28.4,81,30.11,10.0,Calm,Calm,-,N/A,,Clear,0,2013-12-20 08:55:00
4:15 AM,33.8,28.4,81,30.11,10.0,Calm,Calm,-,N/A,,Clear,0,2013-12-20 09:15:00
4:35 AM,33.8,28.4,81,30.10,10.0,Calm,Calm,-,N/A,,Clear,0,2013-12-20 09:35:00
4:55 AM,37.4,28.4,70,30.11,10.0,Calm,Calm,-,N/A,,Clear,0,2013-12-20 09:55:00
5:15 AM,37.4,28.4,70,30.11,10.0,Calm,Calm,-,N/A,,Clear,0,2013-12-20 10:15:00
5:35 AM,39.2,28.4,65,30.11,10.0,Calm,Calm,-,N/A,,Clear,0,2013-12-20 10:35:00
5:55 AM,41.0,28.4,61,30.10,10.0,Calm,Calm,-,N/A,,Clear,0,2013-12-20 10:55:00
6:15 AM,39.2,28.4,65,30.10,10.0,Calm,Calm,-,N/A,,Clear,0,2013-12-20 11:15:00
6:35 AM,39.2,28.4,65,30.10,10.0,Calm,Calm,-,N/A,,Clear,0,2013-12-20 11:35:00
6:55 AM,39.2,28.4,65,30.10,10.0,Calm,Calm,-,N/A,,Clear,0,2013-12-20 11:55:00
7:35 AM,41.0,28.4,61,30.10,10.0,SW,3.5,-,N/A,,Clear,230,2013-12-20 12:35:00
7:55 AM,42.8,28.4,57,30.10,10.0,SW,4.6,-,N/A,,Clear,220,2013-12-20 12:55:00
8:15 AM,42.8,30.2,61,30.11,10.0,SW,4.6,-,N/A,,Clear,220,2013-12-20 13:15:00
8:35 AM,44.6,30.2,57,30.11,10.0,SW,3.5,-,N/A,,Clear,230,2013-12-20 13:35:00
8:55 AM,44.6,30.2,57,30.11,10.0,WSW,5.8,-,N/A,,Clear,240,2013-12-20 13:55:00
9:15 AM,48.2,30.2,50,30.10,10.0,WSW,9.2,-,N/A,,Clear,240,2013-12-20 14:15:00
9:35 AM,48.2,30.2,50,30.10,8.0,WSW,9.2,-,N/A,,Clear,240,2013-12-20 14:35:00
9:55 AM,50.0,30.2,47,30.10,10.0,SW,6.9,-,N/A,,Clear,230,2013-12-20 14:55:00
10:35 AM,-9999,-9999,N/A,30.09,10.0,WSW,6.9,-,N/A,,Clear,240,2013-12-20 15:35:00
10:55 AM,51.8,30.2,44,30.08,10.0,WSW,8.1,-,N/A,,Clear,240,2013-12-20 15:55:00
11:15 AM,51.8,30.2,44,30.07,10.0,SW,8.1,-,N/A,,Clear,230,2013-12-20 16:15:00
11:35 AM,53.6,30.2,41,30.07,10.0,SW,9.2,18.4,N/A,,Clear,230,2013-12-20 16:35:00
11:55 AM,53.6,30.2,41,30.06,10.0,SW,10.4,-,N/A,,Clear,220,2013-12-20 16:55:00
12:15 PM,-9999,-9999,N/A,30.05,10.0,WSW,11.5,-,N/A,,Clear,240,2013-12-20 17:15:00
12:35 PM,-9999,-9999,N/A,30.03,10.0,SW,8.1,-,N/A,,Clear,230,2013-12-20 17:35:00
12:55 PM,-9999,-9999,N/A,30.03,10.0,WSW,8.1,-,N/A,,Clear,240,2013-12-20 17:55:00
1:15 PM,-9999,-9999,N/A,30.03,9.0,WSW,11.5,-,N/A,,Clear,240,2013-12-20 18:15:00
1:35 PM,-9999,-9999,N/A,30.03,10.0,WSW,9.2,-,N/A,,Clear,240,2013-12-20 18:35:00
1:55 PM,-9999,-9999,N/A,30.02,10.0,SW,10.4,-,N/A,,Clear,230,2013-12-20 18:55:00
2:15 PM,-9999,-9999,N/A,30.01,10.0,SW,8.1,-,N/A,,Clear,230,2013-12-20 19:15:00
2:35 PM,-9999,-9999,N/A,30.01,10.0,SW,9.2,-,N/A,,Clear,230,2013-12-20 19:35:00
2:55 PM,55.4,32.0,41,30.01,10.0,SW,8.1,-,N/A,,Clear,230,2013-12-20 19:55:00
3:15 PM,-9999,-9999,N/A,30.01,10.0,SW,4.6,-,N/A,,Clear,230,2013-12-20 20:15:00
3:35 PM,-9999,-9999,N/A,30.01,10.0,SSW,4.6,-,N/A,,Clear,210,2013-12-20 20:35:00
3:55 PM,-9999,-9999,N/A,30.01,10.0,SSW,4.6,-,N/A,,Clear,210,2013-12-20 20:55:00
4:15 PM,51.8,35.6,54,30.02,10.0,Calm,Calm,-,N/A,,Clear,0,2013-12-20 21:15:00
4:35 PM,50.0,35.6,58,30.03,10.0,Calm,Calm,-,N/A,,Clear,0,2013-12-20 21:35:00
4:55 PM,48.2,35.6,62,30.04,10.0,Calm,Calm,-,N/A,,Mostly Cloudy,0,2013-12-20 21:55:00
5:15 PM,48.2,35.6,62,30.04,10.0,Calm,Calm,-,N/A,,Overcast,0,2013-12-20 22:15:00
5:35 PM,48.2,37.4,66,30.04,10.0,Calm,Calm,-,N/A,,Overcast,0,2013-12-20 22:35:00
5:55 PM,48.2,37.4,66,30.03,10.0,SSW,3.5,-,N/A,,Partly Cloudy,200,2013-12-20 22:55:00
6:15 PM,48.2,39.2,71,30.03,10.0,SSW,4.6,-,N/A,,Clear,210,2013-12-20 23:15:00
6:35 PM,48.2,39.2,71,30.04,10.0,Calm,Calm,-,N/A,,Clear,0,2013-12-20 23:35:00
6:55 PM,48.2,41.0,76,30.04,10.0,SSW,3.5,-,N/A,,Clear,210,2013-12-20 23:55:00
7:15 PM,48.2,41.0,76,30.03,10.0,SSW,3.5,-,N/A,,Clear,200,2013-12-21 00:15:00
7:35 PM,50.0,44.6,82,30.03,10.0,SW,3.5,-,N/A,,Clear,220,2013-12-21 00:35:00
7:55 PM,48.2,42.8,82,30.04,10.0,Calm,Calm,-,N/A,,Clear,0,2013-12-21 00:55:00
8:15 PM,48.2,44.6,87,30.04,10.0,SSW,4.6,-,N/A,,Partly Cloudy,210,2013-12-21 01:15:00
8:35 PM,50.0,44.6,82,30.04,10.0,SW,5.8,-,N/A,,Mostly Cloudy,220,2013-12-21 01:35:00
8:55 PM,51.8,46.4,82,30.03,10.0,SW,4.6,-,N/A,,Overcast,220,2013-12-21 01:55:00
9:15 PM,51.8,46.4,82,30.03,10.0,SSW,5.8,-,N/A,,Mostly Cloudy,210,2013-12-21 02:15:00
9:35 PM,50.0,46.4,87,30.03,10.0,SW,4.6,-,N/A,,Mostly Cloudy,220,2013-12-21 02:35:00
9:55 PM,50.0,46.4,87,30.02,10.0,SSW,6.9,-,N/A,,Mostly Cloudy,210,2013-12-21 02:55:00
10:15 PM,50.0,46.4,87,30.02,10.0,SW,4.6,-,N/A,,Overcast,220,2013-12-21 03:15:00
10:35 PM,50.0,46.4,87,30.02,10.0,SW,3.5,-,N/A,,Overcast,220,2013-12-21 03:35:00
10:55 PM,50.0,46.4,87,30.02,10.0,SW,4.6,-,N/A,,Mostly Cloudy,230,2013-12-21 03:55:00
11:15 PM,51.8,46.4,82,30.02,10.0,SW,4.6,-,N/A,,Mostly Cloudy,220,2013-12-21 04:15:00
11:35 PM,-9999,-9999,N/A,30.02,10.0,SW,5.8,-,N/A,,Mostly Cloudy,220,2013-12-21 04:35:00
11:55 PM,-9999,-9999,N/A,30.01,10.0,SW,3.5,-,N/A,,Mostly Cloudy,220,2013-12-21 04:55:00